Printer-friendly version
Follow the MPC on Twitter Follow the MPC on Facebook The MPC blog
Minor Planet Center

MPEC 2010-P17 : 2010 ON101

The following Minor Planet Electronic Circular may be linked-to from your own Web pages, but must not otherwise be redistributed electronically.

A form allowing access to any MPEC is at the bottom of this page.


Read MPEC 2010-P16 Read MPEC 2010-P18


M.P.E.C. 2010-P17                                Issued 2010 Aug. 4, 13:44 UT

     The Minor Planet Electronic Circulars contain information on unusual
         minor planets and routine data on comets.  They are published
   on behalf of Commission 20 of the International Astronomical Union by the
          Minor Planet Center, Smithsonian Astrophysical Observatory,
                          Cambridge, MA 02138, U.S.A.

             Prepared using the Tamkin Foundation Computer Network

                              MPC@CFA.HARVARD.EDU
       URL http://www.minorplanetcenter.org/iau/mpc.html  ISSN 1523-6714

                                  2010 ON101

Observations:
     K10OA1N* S2010 07 30.95138 15 39 22.19 +29 40 24.2          20   R EP017C51
     K10OA1N  s2010 07 30.95138 1 - 5061.4171 - 3028.6949 + 3586.2277   EP017C51
     K10OA1N  S2010 07 30.95151 15 39 22.24 +29 40 22.5                 EP017C51
     K10OA1N  s2010 07 30.95151 1 - 5030.6256 - 2995.4363 + 3656.5294   EP017C51
     K10OA1N  S2010 07 31.01759 15 40 02.13 +29 40 50.1                 EP017C51
     K10OA1N  s2010 07 31.01759 1 - 5042.4505 - 3018.0107 + 3621.3728   EP017C51
     K10OA1N  S2010 07 31.08381 15 40 42.04 +29 41 15.2                 EP017C51
     K10OA1N  s2010 07 31.08381 1 - 5023.4696 - 3006.9883 + 3656.3378   EP017C51
     K10OA1N  S2010 07 31.14990 15 41 21.90 +29 41 40.2                 EP017C51
     K10OA1N  s2010 07 31.14990 1 - 5035.4025 - 3029.1882 + 3621.4324   EP017C51
     K10OA1N  S2010 07 31.28220 15 42 41.54 +29 42 27.3                 EP017C51
     K10OA1N  s2010 07 31.28220 1 - 5028.1779 - 3039.9081 + 3622.5707   EP017C51
     K10OA1N KC2010 08 04.10605 16 20 08.42 +29 42 09.6          19.5 V EP017H21
     K10OA1N KC2010 08 04.11140 16 20 11.38 +29 42 07.7          19.4 V EP017H21
     K10OA1N KC2010 08 04.11511 16 20 13.81 +29 42 07.6          19.2 C EP017H36
     K10OA1N KC2010 08 04.11657 16 20 14.25 +29 42 05.8          19.6 V EP017H21
     K10OA1N KC2010 08 04.11848 16 20 15.65 +29 42 06.3          19.5 C EP017H36
     K10OA1N KC2010 08 04.12092 16 20 16.66 +29 42 04.2          19.5 V EP017H21
     K10OA1N KC2010 08 04.12231 16 20 17.78 +29 42 05.2          19.6 C EP017H36
     K10OA1N KC2010 08 04.12484 16 20 19.20 +29 42 04.0          18.6 C EP017H36
     K10OA1N KC2010 08 04.12592 16 20 19.43 +29 42 02.1          19.6 V EP017H21
     K10OA1N tC2010 08 04.18040 16 20 50.76 +29 41 50.4                 EP017291
     K10OA1N  C2010 08 04.18524 16 20 53.24 +29 41 48.5          19.2 V EP017691
     K10OA1N tC2010 08 04.18564 16 20 53.58 +29 41 48.3          19.6 V EP017291
     K10OA1N  C2010 08 04.18835 16 20 55.00 +29 41 47.1          19.3 V EP017691
     K10OA1N tC2010 08 04.19006 16 20 55.98 +29 41 46.3          19.5 V EP017291
     K10OA1N  C2010 08 04.19117 16 20 56.54 +29 41 46.1          19.2 V EP017691
     K10OA1N  C2010 08 04.27705 16 21 44.19 +29 41 08.3          17.5 R EP017854
     K10OA1N  C2010 08 04.27803 16 21 44.73 +29 41 09.0          18.3 R EP017854
     K10OA1N  C2010 08 04.27995 16 21 45.73 +29 41 06.1          17.5 R EP017854

Observer details:
291 LPL/Spacewatch II.  Observer R. S. McMillan.  1.8-m f/2.7 reflector + CCD.
691 Steward Observatory, Kitt Peak.  Observer R. S. McMillan.  0.9-m f/3
    reflector + CCD.
854 Sabino Canyon Observatory, Tucson.  Observer J. E. McGaha.  0.36-m f/10.0
    Schmidt-Cassegrain + CCD.
C51 WISE.  Measurers A. K. Mainzer, E. L. Wright, J. M. Bauer, T. Grav,
    J. W. Dailey, J. R. Masiero, R. M. Cutri, R. S. McMillan,
    R. G. Walker. (http://wise.ssl.berkeley.edu/mission_sci.html).
H21 Astronomical Research Observatory, Westfield.  Observer R. Holmes.
    Measurer H. Devore.  0.61-m f/4.0 astrograph + CCD.
H36 Sandlot Observatory, Scranton.  Observer G. Hug.  0.56-m reflector + CCD.

Orbital elements:
2010 ON101                                          PHA, Earth MOID = 0.0451 AU
Epoch 2010 July 23.0 TT = JDT 2455400.5                 MPC
M  13.55030              (2000.0)            P               Q
n   0.48719511     Peri.    7.59435     -0.18200517     +0.97157772
a   1.5995609      Node   252.01241     -0.91031752     -0.22468523
e   0.3978208      Incl.    9.15708     -0.37174741     +0.07452032
P   2.02           H   20.4           G   0.15           U   8
Residuals in seconds of arc
100730 C51  0.1+  0.1+    100804 H36  0.2-  0.1+    100804 691  0.7-  0.1+
100730 C51  0.2-  1.0-    100804 H21  0.1-  0.2+    100804 291  0.8+  0.0
100731 C51  0.2+  0.1+    100804 H36  0.5-  0.0     100804 691  0.2-  0.1-
100731 C51  0.0   0.2+    100804 H21  0.1-  0.2+    100804 291  0.3+  0.2-
100731 C51  0.4+  0.3+    100804 H36  0.4-  0.3+    100804 691  0.4-  0.0
100731 C51  0.1+  0.7+    100804 H36  0.1-  0.1+    100804 854  0.2+  0.2+
100804 H21  0.2-  0.0     100804 H21  0.2-  0.0     100804 854  0.1+  1.4+
100804 H21  0.2-  0.1+    100804 291  1.7+  0.0     100804 854  0.8-  0.6-

Ephemeris:
2010 ON101               a,e,i = 1.60, 0.40, 9                   q = 0.9632
Date    TT    R. A. (2000) Decl.     Delta      r     Elong.  Phase     V
2010 08 02    15 59.74   +29 47.8    0.173    1.047    95.9    74.6    19.3
2010 08 12    17 28.70   +27 46.7    0.197    1.091   108.3    61.8    19.3
2010 08 22    18 34.80   +23 23.9    0.237    1.142   118.0    51.5    19.5
2010 09 01    19 22.26   +18 39.9    0.289    1.196   124.3    44.2    19.8
2010 09 11    19 58.09   +14 23.4    0.354    1.253   127.4    39.7    20.2
2010 09 21    20 27.22   +10 50.4    0.429    1.312   127.8    37.2    20.7
2010 10 01    20 52.37   +08 03.3    0.516    1.371   126.2    36.1    21.1
2010 10 11    21 15.16   +05 58.8    0.614    1.429   123.1    35.8    21.6
2010 10 21    21 36.55   +04 33.2    0.722    1.487   119.1    35.8    22.0

Sonia Keys                   (C) Copyright 2010 MPC           M.P.E.C. 2010-P17

Read MPEC 2010-P16 Read MPEC 2010-P18


MPEC number:

Enter an MPEC number in one of the following forms:

  • 1997-B01 (the full form)
  • J97B01 (the packed version of the full form)
  • B01 (the abbreviated form)

Valid HTML 4.01!